User: anonymous   Login
Location: Heilwood
(40.6210°N, 78.9150°W)
Time: 15:01:44
(UTC-04:00)
Language:

BREEZE-M DEB (TANK) - Orbit

View from above orbital plane
View from above orbital plane
View from above satellite
View from above satellite

Ground track
Ground track

The orbit data is extracted from the following two-line orbital elements,

1 29649U 06056B   16269.60286935 +.00002247 +00000-0 +45325-3 0  9997
2 29649 049.5093 067.0561 5381323 356.4143 000.8862 04.98827910174574
Epoch (UTC): 25 September 2016 14:28:07
Eccentricity: 0.5381323
inclination: 49.5093°
perigee height: 304 km
apogee height: 15877 km
right ascension of ascending node: 67.0561°
argument of perigee: 356.4143°
revolutions per day: 4.98827910
mean anomaly at epoch: 0.8862°
orbit number at epoch: 17457

The dashed part of the orbit path shows where the satellite is in the earth's shadow,  

DLR